Location: *
(43.4667°N, 11.6833°E)
Time: 00:15:35
(UTC+00:00)

Cosmos 2333 - Pass Details

Date: 19 July 2019
Orbit: 833 x 863 km, 70.9° (Epoch: 23 August)

Event Time Altitude Azimuth Distance (km) Brightness Sun altitude
Exits shadow 21:19:29 13° 211° (SSW) 2,276 6.2 -20.1°
Maximum altitude 21:24:39 75° 296° (WNW) 880 4.3 -20.5°
Drops below altitude 10° 21:30:19 10° 22° (NNE) 2,470 7.1 -21.0°
Sets 21:32:47 0° 24° (NNE) 3,405 7.9 -21.2°
